Choptank River Felton DE USA current weather conditions

sailwx.info

Wind from 278

Air temperature -2.4° C
Dewpoint -4.5° C

Last reported at 2019-Dec-07 13:05 UTC.
Time now 2019-Dec-07 13:37 UTC

Location: N 39°02' W 075°44'.
View on Google Maps.

See reports from other nearby stations

  
Tides and Currents Weather Stations Pressure Air Temp Water Temp Dewpoint Dewpoint Depression Visibility Wind Speed Wind Dir Waves Ship Positions
date/time (UTC)wind fromknots sea level pressurealtimeterstation pressurevisibilityair tempwater tempwave heightnotes
2019-Dec-07 13:05 278 -2.4
2019-Dec-07 12:50 278 -2.3
2019-Dec-07 12:45 278 -2.2
2019-Dec-07 12:40 278 -2.2
2019-Dec-07 12:35 278 -2.2
2019-Dec-07 12:25 277 -2.1
2019-Dec-07 12:20 277 -2.0
2019-Dec-07 12:15 277 -2.0
2019-Dec-07 12:10 267 -1.8
2019-Dec-07 12:05 248 -1.7
2019-Dec-07 11:55 241 -1.3
2019-Dec-07 11:50 218 -1.1
2019-Dec-07 11:45 178 -0.8
2019-Dec-07 11:40 178 -0.6
2019-Dec-07 11:25 169 0 gusting 0 0.3
2019-Dec-07 11:20 085 0 gusting 2 0.3
2019-Dec-07 11:15 068 0.4
2019-Dec-07 11:10 127 0 gusting 2 0.6
2019-Dec-07 11:05 050 0 gusting 0 0.8
2019-Dec-07 10:55 110 0 gusting 2 1.1
2019-Dec-07 10:50 067 0 gusting 1 1.3
2019-Dec-07 10:45 161 0 gusting 2 1.4
2019-Dec-07 10:35 138 0 gusting 2 1.6
2019-Dec-07 10:25 118 1 gusting 3 1.9
2019-Dec-07 10:20 174 1 gusting 3 2.1
2019-Dec-07 10:15 139 2 gusting 8 2.1
2019-Dec-07 10:10 117 1 gusting 4 2.0
2019-Dec-07 10:05 150 0 gusting 3 2.1
2019-Dec-07 09:55 159 1 gusting 5 2.4
2019-Dec-07 09:45 098 0 gusting 3 2.5
2019-Dec-07 09:40 196 1 gusting 3 2.4
2019-Dec-07 09:35 154 0 gusting 1 2.5
2019-Dec-07 09:25 118 0 gusting 3 2.6
2019-Dec-07 09:20 194 0 gusting 2 2.7
2019-Dec-07 09:15 202 0 gusting 3 2.8
2019-Dec-07 09:10 088 1 gusting 3 2.8
2019-Dec-07 09:05 187 0 gusting 2 2.8
2019-Dec-07 08:55 173 0 gusting 2 3.2
2019-Dec-07 08:50 191 0 gusting 2 3.3
2019-Dec-07 08:45 148 1 gusting 2 3.4
2019-Dec-07 08:40 190 0 gusting 2 3.3
2019-Dec-07 08:35 145 0 gusting 1 3.4
2019-Dec-07 08:25 182 0 gusting 2 3.4
2019-Dec-07 08:20 182 0 gusting 2 3.5
2019-Dec-07 08:15 150 0 gusting 3 3.5
2019-Dec-07 08:10 145 0 gusting 3 3.5
2019-Dec-07 08:05 117 0 gusting 2 3.5
2019-Dec-07 07:55 153 0 gusting 1 3.7
2019-Dec-07 07:50 172 0 gusting 2 3.8
2019-Dec-07 07:45 211 0 gusting 0 4.0
2019-Dec-07 07:40 239 0 gusting 0 4.2
2019-Dec-07 07:35 161 0 gusting 1 4.3
2019-Dec-07 07:25 126 0 gusting 1 4.8
2019-Dec-07 07:20 168 0 gusting 2 5.0
2019-Dec-07 07:15 139 0 gusting 5 5.1
2019-Dec-07 07:10 136 1 gusting 5 5.2
2019-Dec-07 07:05 150 0 gusting 3 5.3
2019-Dec-07 06:55 136 0 gusting 2 5.7
2019-Dec-07 06:50 142 1 gusting 11 5.8
2019-Dec-07 06:45 156 1 gusting 3 6.0
2019-Dec-07 06:40 102 1 gusting 4 6.2
2019-Dec-07 06:35 143 1 gusting 5 6.3
2019-Dec-07 06:25 165 1 gusting 5 6.5
2019-Dec-07 06:20 203 1 gusting 4 6.6
2019-Dec-07 06:15 215 0 gusting 2 6.7
2019-Dec-07 06:10 131 0 gusting 2 6.8
2019-Dec-07 06:05 161 1 gusting 5 6.9
2019-Dec-07 05:55 138 1 gusting 7 7.0
2019-Dec-07 05:50 106 1 gusting 5 7.1
2019-Dec-07 05:45 143 1 gusting 5 7.1
2019-Dec-07 05:35 125 2 gusting 6 7.3
2019-Dec-07 05:25 141 1 gusting 7 7.5
2019-Dec-07 05:20 088 2 gusting 8 7.5
2019-Dec-07 05:15 200 1 gusting 3 7.5
2019-Dec-07 05:10 137 1 gusting 6 7.6
2019-Dec-07 05:05 132 1 gusting 6 7.7
2019-Dec-07 04:55 132 1 gusting 2 7.7
2019-Dec-07 04:50 189 1 gusting 5 7.8
2019-Dec-07 04:45 184 0 gusting 3 8.0
2019-Dec-07 04:40 152 1 gusting 3 8.1
2019-Dec-07 04:35 179 0 gusting 4 8.2
2019-Dec-07 04:25 132 1 gusting 4 8.5
2019-Dec-07 04:20 141 1 gusting 6 8.7
2019-Dec-07 04:15 189 2 gusting 9 8.7
2019-Dec-07 04:10 177 1 gusting 5 8.7
2019-Dec-07 04:05 154 1 gusting 4 8.7
2019-Dec-07 03:55 170 1 gusting 4 8.4
2019-Dec-07 03:45 194 0 gusting 2 8.0
2019-Dec-07 03:40 210 0 gusting 1 8.0
2019-Dec-07 03:35 241 0 gusting 0 8.2
2019-Dec-07 03:25 273 0 gusting 1 8.5
2019-Dec-07 03:20 288 0 gusting 2 8.6
2019-Dec-07 03:15 249 0 gusting 2 8.7
2019-Dec-07 03:10 302 0 gusting 4 8.7
2019-Dec-07 03:05 129 0 gusting 2 8.8
2019-Dec-07 03:00 203 0 gusting 3 9.0
2019-Dec-07 02:55 296 1 gusting 4 9.1
2019-Dec-07 02:50 267 0 gusting 2 9.2
2019-Dec-07 02:40 272 1 gusting 3 9.4
2019-Dec-07 02:35 281 2 gusting 4 9.5
2019-Dec-07 02:25 270 1 gusting 6 9.5
2019-Dec-07 02:20 232 1 gusting 4 9.6
2019-Dec-07 02:15 273 1 gusting 3 9.7
2019-Dec-07 02:10 281 1 gusting 3 10.0
2019-Dec-07 02:05 248 2 gusting 5 10.1
2019-Dec-07 01:55 291 2 gusting 5 10.2
2019-Dec-07 01:45 281 1 gusting 3 10.2
2019-Dec-07 01:40 276 2 gusting 4 10.2
2019-Dec-07 01:35 268 1 gusting 4 10.2
2019-Dec-07 01:25 270 1 gusting 4 10.3
2019-Dec-07 01:20 272 2 gusting 4 10.4
2019-Dec-07 01:15 267 3 gusting 5 10.4
2019-Dec-07 01:10 255 3 gusting 6 10.5
2019-Dec-07 01:05 242 3 gusting 6 10.4
2019-Dec-07 00:55 275 2 gusting 5 10.3
2019-Dec-07 00:50 251 2 gusting 5 10.4
2019-Dec-07 00:45 264 2 gusting 5 10.4
2019-Dec-07 00:40 262 2 gusting 4 10.4
2019-Dec-07 00:35 268 1 gusting 3 10.5
2019-Dec-07 00:25 247 3 gusting 5 10.6
2019-Dec-07 00:20 241 3 gusting 6 10.6
2019-Dec-07 00:15 249 4 gusting 10 10.5
2019-Dec-07 00:05 232 3 gusting 5 10.5
2019-Dec-06 23:55 229 3 gusting 6 10.5
2019-Dec-06 23:50 224 3 gusting 5 10.5
2019-Dec-06 23:45 230 3 gusting 5 10.4
2019-Dec-06 23:40 232 2 gusting 4 10.5
2019-Dec-06 23:35 224 2 gusting 6 10.6
2019-Dec-06 23:25 231 3 gusting 5 10.7
2019-Dec-06 23:20 229 3 gusting 5 10.7
2019-Dec-06 23:15 228 3 gusting 6 10.7
2019-Dec-06 23:10 241 3 gusting 6 10.7
2019-Dec-06 23:05 233 3 gusting 7 10.8
2019-Dec-06 22:55 232 3 gusting 6 10.7
2019-Dec-06 22:50 240 3 gusting 6 10.6
2019-Dec-06 22:45 222 3 gusting 7 10.6
2019-Dec-06 22:40 233 3 gusting 6 10.6
2019-Dec-06 22:35 232 3 gusting 6 10.5
2019-Dec-06 22:25 236 3 gusting 5 10.6
2019-Dec-06 22:20 237 3 gusting 6 10.7
2019-Dec-06 22:15 244 3 gusting 5 10.7
2019-Dec-06 22:10 240 3 gusting 6 10.8
2019-Dec-06 22:05 229 4 gusting 8 10.8
2019-Dec-06 21:55 228 4 gusting 7 11.0
2019-Dec-06 21:50 235 3 gusting 6 10.9
2019-Dec-06 21:40 245 3 gusting 7 11.1
2019-Dec-06 21:35 245 4 gusting 8 11.1
2019-Dec-06 21:25 222 6 gusting 12 11.2
2019-Dec-06 21:20 233 4 gusting 7 11.2
2019-Dec-06 21:15 228 4 gusting 7 11.3
2019-Dec-06 21:10 235 5 gusting 9 11.3
2019-Dec-06 21:05 227 4 gusting 9 11.3
2019-Dec-06 20:55 227 5 gusting 9 11.3
2019-Dec-06 20:50 231 4 gusting 9 11.4
2019-Dec-06 20:45 238 5 gusting 11 11.4
2019-Dec-06 20:40 235 4 gusting 8 11.4
2019-Dec-06 20:35 233 5 gusting 9 11.4
2019-Dec-06 20:25 226 4 gusting 9 11.5
2019-Dec-06 20:20 227 5 gusting 11 11.6
2019-Dec-06 20:15 224 5 gusting 10 11.7
2019-Dec-06 20:05 226 6 gusting 12 11.8
2019-Dec-06 19:55 228 5 gusting 9 11.8
2019-Dec-06 19:50 233 6 gusting 11 11.8
2019-Dec-06 19:45 232 5 gusting 11 11.7
2019-Dec-06 19:40 229 6 gusting 11 11.7
2019-Dec-06 19:35 235 5 gusting 12 11.8
2019-Dec-06 19:25 230 5 gusting 10 11.8
2019-Dec-06 19:20 229 6 gusting 13 11.8
2019-Dec-06 19:15 237 6 gusting 11 11.9
2019-Dec-06 19:10 236 5 gusting 8 11.9
2019-Dec-06 19:05 237 4 gusting 7 11.8
2019-Dec-06 18:55 238 6 gusting 16 11.8
2019-Dec-06 18:50 236 6 gusting 10 11.8
2019-Dec-06 18:45 243 5 gusting 11 11.7
2019-Dec-06 18:40 227 7 gusting 14 11.7
2019-Dec-06 18:35 226 6 gusting 10 11.8
2019-Dec-06 18:25 220 6 gusting 13 11.8
2019-Dec-06 18:20 235 7 gusting 13 11.7
2019-Dec-06 18:15 224 5 gusting 10 11.6
2019-Dec-06 18:10 235 6 gusting 11 11.4
2019-Dec-06 18:05 220 5 gusting 12 11.3
2019-Dec-06 17:55 217 4 gusting 8 11.2
2019-Dec-06 17:50 225 5 gusting 9 11.1
2019-Dec-06 17:45 214 5 gusting 8 11.1
2019-Dec-06 17:40 204 4 gusting 8 11.1
2019-Dec-06 17:35 212 4 gusting 10 11.0
2019-Dec-06 17:25 224 6 gusting 10 11.0
2019-Dec-06 17:20 222 6 gusting 11 11.0
2019-Dec-06 17:15 213 4 gusting 11 10.9
2019-Dec-06 17:10 210 6 gusting 12 10.8
2019-Dec-06 17:05 221 4 gusting 9 10.7
2019-Dec-06 16:55 209 4 gusting 9 10.6
2019-Dec-06 16:45 203 3 gusting 10 10.4
2019-Dec-06 16:40 205 5 gusting 10 10.3
2019-Dec-06 16:35 208 4 gusting 9 10.5
2019-Dec-06 16:25 209 5 gusting 10 10.6
2019-Dec-06 16:20 213 5 gusting 9 10.4
2019-Dec-06 16:15 205 4 gusting 9 10.1
2019-Dec-06 16:10 210 3 gusting 7 9.5
2019-Dec-06 16:05 201 6 gusting 10 9.1
2019-Dec-06 15:55 190 4 gusting 10 8.4
2019-Dec-06 15:50 196 5 gusting 10 8.3
2019-Dec-06 15:45 219 4 gusting 8 8.2
2019-Dec-06 15:40 205 4 gusting 8 8.0
2019-Dec-06 15:35 199 4 gusting 9 7.7
2019-Dec-06 15:25 203 4 gusting 9 7.4
2019-Dec-06 15:20 196 4 gusting 7 7.2
2019-Dec-06 15:10 203 4 gusting 8 7.0
2019-Dec-06 15:05 211 3 gusting 7 6.9
2019-Dec-06 14:55 209 3 gusting 7 6.3
2019-Dec-06 14:50 201 3 gusting 7 6.1
2019-Dec-06 14:45 217 3 gusting 6 5.9
2019-Dec-06 14:40 198 2 gusting 5 5.7
2019-Dec-06 14:35 209 3 gusting 6 5.6
2019-Dec-06 14:25 197 2 gusting 5 5.4
2019-Dec-06 14:20 193 3 gusting 7 5.2
2019-Dec-06 14:15 207 3 gusting 6 5.2
2019-Dec-06 14:10 206 3 gusting 6 4.9
2019-Dec-06 14:05 217 2 gusting 7 4.4
2019-Dec-06 13:55 210 3 gusting 5 3.4
2019-Dec-06 13:50 199 2 gusting 4 2.9
2019-Dec-06 13:45 211 1 gusting 4 2.5
2019-Dec-06 13:40 218 2 gusting 4 2.1
2019-Dec-06 13:35 207 1 gusting 4 1.7
2019-Dec-06 13:25 207 1 gusting 3 1.0
2019-Dec-06 13:20 219 1 gusting 3 0.7
2019-Dec-06 13:15 216 1 gusting 4 0.1
2019-Dec-06 13:10 202 1 gusting 3 -0.3
2019-Dec-06 13:05 206 1 gusting 3 -0.6
2019-Dec-06 12:55 199 0 gusting 2 -2.0
2019-Dec-06 12:50 194 0 gusting 1 -2.1
2019-Dec-06 12:40 179 0 gusting 2 -2.3
2019-Dec-06 12:35 168 0 gusting 1 -2.4
2019-Dec-06 12:25 172 0 gusting 1 -2.5
2019-Dec-06 12:20 178 1 gusting 1 -2.5
2019-Dec-06 12:15 172 1 gusting 1 -2.5
2019-Dec-06 12:10 167 1 gusting 1 -2.6
2019-Dec-06 12:05 169 1 gusting 2 -2.6
2019-Dec-06 11:55 172 0 gusting 1 -2.7
2019-Dec-06 11:50 159 0 gusting 1 -2.7
2019-Dec-06 11:45 183 0 gusting 1 -2.7
2019-Dec-06 11:35 175 0 gusting 1 -2.9
2019-Dec-06 11:25 185 -2.9
2019-Dec-06 11:20 181 -2.8
2019-Dec-06 11:15 181 0 gusting 1 -2.7
2019-Dec-06 11:10 177 0 gusting 1 -2.8
2019-Dec-06 11:05 182 0 gusting 1 -2.8
2019-Dec-06 10:55 180 -2.8
2019-Dec-06 10:50 174 -2.7
2019-Dec-06 10:45 171 0 gusting 1 -2.7
2019-Dec-06 10:40 179 0 gusting 1 -2.7
2019-Dec-06 10:35 179 0 gusting 1 -2.7
2019-Dec-06 10:25 186 0 gusting 1 -2.7
2019-Dec-06 10:20 197 0 gusting 0 -2.7
2019-Dec-06 10:15 192 0 gusting 1 -2.7
2019-Dec-06 10:05 189 0 gusting 1 -2.7
2019-Dec-06 09:55 205 -2.7
2019-Dec-06 09:50 204 -2.6
2019-Dec-06 09:45 203 -2.6
2019-Dec-06 09:40 203 -2.7
2019-Dec-06 09:35 203 -2.6
2019-Dec-06 09:25 203 -2.3
2019-Dec-06 09:20 214 -2.3
2019-Dec-06 09:15 220 -2.3
2019-Dec-06 09:10 224 -2.3
2019-Dec-06 09:05 234 -2.2
2019-Dec-06 08:55 199 -2.0
2019-Dec-06 08:50 182 -1.9
2019-Dec-06 08:45 175 -1.8
2019-Dec-06 08:40 177 -1.7
2019-Dec-06 08:35 175 -1.5
2019-Dec-06 08:25 183 -1.4
2019-Dec-06 08:20 187 -1.3
2019-Dec-06 08:15 187 -1.2
2019-Dec-06 08:10 186 0 gusting 0 -1.1
2019-Dec-06 08:05 187 0 gusting 0 -1.1
2019-Dec-06 07:55 185 -1.0
2019-Dec-06 07:50 178 -1.0
2019-Dec-06 07:45 178 -1.0
2019-Dec-06 07:40 178 -1.0
2019-Dec-06 07:35 178 -1.0
2019-Dec-06 07:25 178 -1.0
2019-Dec-06 07:20 179 0 gusting 1 -1.0
2019-Dec-06 07:15 172 -1.0
2019-Dec-06 07:10 190 -1.1
2019-Dec-06 07:05 204 -1.2
2019-Dec-06 06:55 204 -1.5
2019-Dec-06 06:50 204 -1.5
2019-Dec-06 06:45 204 -1.4
2019-Dec-06 06:40 194 -1.4
2019-Dec-06 06:35 187 -1.4
2019-Dec-06 06:25 192 -1.5
2019-Dec-06 06:20 228 -1.5
2019-Dec-06 06:15 229 -1.5
2019-Dec-06 06:10 229 -1.5
2019-Dec-06 06:05 214 -1.5
2019-Dec-06 05:55 243 -1.5
2019-Dec-06 05:50 243 -1.5
2019-Dec-06 05:45 244 -1.6
2019-Dec-06 05:40 242 -1.5
2019-Dec-06 05:35 238 -1.4
2019-Dec-06 05:25 182 -1.4
2019-Dec-06 05:20 185 -1.5
2019-Dec-06 05:15 188 -1.4
2019-Dec-06 05:10 188 -1.3
2019-Dec-06 05:05 188 0 gusting 0 -1.3
2019-Dec-06 04:55 175 0 gusting 1 -1.3
2019-Dec-06 04:50 189 0 gusting 0 -1.2
2019-Dec-06 04:45 182 0 gusting 0 -1.2
2019-Dec-06 04:40 162 0 gusting 0 -1.2
2019-Dec-06 04:35 167 0 gusting 1 -1.2
2019-Dec-06 04:25 125 -1.3
2019-Dec-06 04:20 125 -1.4
2019-Dec-06 04:15 125 -1.3
2019-Dec-06 04:10 181 -1.3
2019-Dec-06 04:05 226 0 gusting 1 -1.2
2019-Dec-06 03:55 250 1 gusting 1 -1.2
2019-Dec-06 03:50 240 0 gusting 1 -1.4
2019-Dec-06 03:45 228 0 gusting 0 -1.4
2019-Dec-06 03:40 170 0 gusting 1 -1.4
2019-Dec-06 03:35 145 1 gusting 1 -1.3
2019-Dec-06 03:25 138 0 gusting 1 -1.2
2019-Dec-06 03:20 229 -1.2
2019-Dec-06 03:15 258 -1.3
2019-Dec-06 03:10 201 -1.1
2019-Dec-06 03:05 198 -0.9
2019-Dec-06 02:55 148 0 gusting 0 -0.7
2019-Dec-06 02:50 155 0 gusting 1 -0.5
2019-Dec-06 02:45 217 0 gusting 0 -0.4
2019-Dec-06 02:35 246 0 gusting 1 -0.1
2019-Dec-06 02:25 263 0 gusting 0 -0.3
2019-Dec-06 02:20 264 -0.2
2019-Dec-06 02:15 268 0 gusting 1 0.0
2019-Dec-06 02:10 249 1 gusting 1 0.3
2019-Dec-06 02:05 241 1 gusting 1 0.8
2019-Dec-06 01:55 234 1 gusting 1 2.2
2019-Dec-06 01:45 205 0 gusting 1 1.4
2019-Dec-06 01:40 232 0 gusting 1 1.2
2019-Dec-06 01:35 273 0 gusting 1 1.1
2019-Dec-06 01:25 176 0 gusting 1 0.7
2019-Dec-06 01:20 077 0.6
2019-Dec-06 01:15 185 0.7
2019-Dec-06 01:05 292 1.1
2019-Dec-06 00:55 254 0 gusting 1 1.4
2019-Dec-06 00:50 251 0 gusting 1 1.5
2019-Dec-06 00:45 216 0 gusting 1 1.4
2019-Dec-06 00:40 173 0 gusting 0 1.4
2019-Dec-06 00:35 137 0 gusting 0 1.5
2019-Dec-06 00:25 264 0 gusting 1 1.8
2019-Dec-06 00:20 247 0 gusting 1 2.3
2019-Dec-06 00:10 248 0 gusting 1 3.3
2019-Dec-06 00:05 255 0 gusting 2 3.2
2019-Dec-05 23:55 282 0 gusting 3 3.5
2019-Dec-05 23:50 285 1 gusting 3 3.4
2019-Dec-05 23:45 272 0 gusting 2 3.4
2019-Dec-05 23:40 292 0 gusting 2 3.3
2019-Dec-05 23:35 190 0 gusting 2 3.1
2019-Dec-05 23:25 232 0 gusting 1 2.8
2019-Dec-05 23:20 277 0 gusting 1 2.7
2019-Dec-05 23:15 276 2.8
2019-Dec-05 23:10 279 0 gusting 1 3.1
2019-Dec-05 23:05 294 0 gusting 1 3.4
2019-Dec-05 22:55 289 0 gusting 2 3.9
2019-Dec-05 22:50 264 4.3
2019-Dec-05 22:45 267 0 gusting 2 4.5
2019-Dec-05 22:40 288 0 gusting 3 4.3
2019-Dec-05 22:35 288 0 gusting 1 4.3
2019-Dec-05 22:25 315 0 gusting 1 4.7
2019-Dec-05 22:20 117 0 gusting 2 5.0
2019-Dec-05 22:15 298 0 gusting 3 5.1
2019-Dec-05 22:10 306 0 gusting 3 5.2
2019-Dec-05 22:05 250 1 gusting 3 5.3
2019-Dec-05 21:55 252 1 gusting 4 5.6
2019-Dec-05 21:50 282 2 gusting 5 5.7
2019-Dec-05 21:40 286 2 gusting 7 5.9
2019-Dec-05 21:35 281 2 gusting 6 6.0
2019-Dec-05 21:25 255 2 gusting 6 6.2
2019-Dec-05 21:20 242 2 gusting 7 6.4
2019-Dec-05 21:15 255 2 gusting 7 6.6
2019-Dec-05 21:10 293 2 gusting 6 6.8
2019-Dec-05 21:05 261 2 gusting 6 6.9
2019-Dec-05 20:55 284 4 gusting 8 7.0
2019-Dec-05 20:50 245 3 gusting 11 7.0
2019-Dec-05 20:45 293 4 gusting 10 6.9
2019-Dec-05 20:40 256 2 gusting 10 6.6
2019-Dec-05 20:35 271 3 gusting 6 6.6
2019-Dec-05 20:25 270 4 gusting 10 6.7
2019-Dec-05 20:20 271 3 gusting 9 6.8
2019-Dec-05 20:15 290 4 gusting 9 6.8
2019-Dec-05 20:05 275 3 gusting 8 7.1
2019-Dec-05 19:55 258 2 gusting 7 7.4
2019-Dec-05 19:50 282 3 gusting 11 7.6
2019-Dec-05 19:45 274 3 gusting 7 7.3
2019-Dec-05 19:40 245 2 gusting 6 7.1
2019-Dec-05 19:35 272 3 gusting 9 6.8
2019-Dec-05 19:25 280 5 gusting 10 7.0
2019-Dec-05 19:15 274 4 gusting 11 6.8
2019-Dec-05 19:10 275 4 gusting 9 6.6
2019-Dec-05 19:05 281 4 gusting 9 6.5
2019-Dec-05 18:55 274 5 gusting 10 6.6
2019-Dec-05 18:50 277 5 gusting 14 6.6
2019-Dec-05 18:45 282 4 gusting 12 6.8
2019-Dec-05 18:40 289 4 gusting 11 7.0
2019-Dec-05 18:35 272 4 gusting 16 7.3
2019-Dec-05 18:25 249 5 gusting 14 6.6
2019-Dec-05 18:20 251 3 gusting 8 6.5
2019-Dec-05 18:15 283 3 gusting 11 6.5
2019-Dec-05 18:10 272 4 gusting 10 6.5
2019-Dec-05 18:05 256 3 gusting 9 6.5
2019-Dec-05 17:55 281 4 gusting 13 6.1
2019-Dec-05 17:50 277 2 gusting 5 6.1
2019-Dec-05 17:45 236 4 gusting 11 6.1
2019-Dec-05 17:40 269 3 gusting 8 6.2
2019-Dec-05 17:35 230 3 gusting 11 6.1
2019-Dec-05 17:25 267 4 gusting 12 6.0
2019-Dec-05 17:20 265 6 gusting 15 6.0
2019-Dec-05 17:15 284 5 gusting 11 6.0
2019-Dec-05 17:10 267 5 gusting 13 6.1
2019-Dec-05 17:05 271 5 gusting 13 6.1
2019-Dec-05 16:55 262 4 gusting 10 5.6
2019-Dec-05 16:45 274 3 gusting 7 5.5
2019-Dec-05 16:40 277 5 gusting 10 5.4
2019-Dec-05 16:35 263 4 gusting 13 5.4
2019-Dec-05 16:25 277 6 gusting 13 5.5
2019-Dec-05 16:20 268 4 gusting 10 5.5
2019-Dec-05 16:15 286 4 gusting 12 5.6
2019-Dec-05 16:10 286 4 gusting 11 5.7
2019-Dec-05 16:05 280 5 gusting 13 5.8
2019-Dec-05 15:55 278 5 gusting 12 5.8
2019-Dec-05 15:50 272 5 gusting 15 5.9
2019-Dec-05 15:45 292 2 gusting 8 6.0
2019-Dec-05 15:40 279 5 gusting 17 6.1
2019-Dec-05 15:35 276 3 gusting 8 6.4
2019-Dec-05 15:25 235 3 gusting 12 6.7
2019-Dec-05 15:20 282 4 gusting 14 6.5
2019-Dec-05 15:10 260 3 gusting 10 6.4
2019-Dec-05 15:05 268 3 gusting 8 5.9
2019-Dec-05 14:55 282 3 gusting 11 5.9
2019-Dec-05 14:50 269 5 gusting 11 6.2
2019-Dec-05 14:45 249 3 gusting 10 6.8
2019-Dec-05 14:40 267 5 gusting 13 6.5
2019-Dec-05 14:35 274 5 gusting 13 6.3
2019-Dec-05 14:25 270 4 gusting 14 6.2
2019-Dec-05 14:20 273 5 gusting 10 6.0
2019-Dec-05 14:15 273 4 gusting 11 5.9
2019-Dec-05 14:10 277 3 gusting 9 5.8
2019-Dec-05 14:05 279 4 gusting 9 5.8
2019-Dec-05 13:55 281 5 gusting 11 5.7
2019-Dec-05 13:50 249 2 gusting 6 5.7
2019-Dec-05 13:45 265 3 gusting 8 5.4
2019-Dec-05 13:40 287 6 gusting 15 5.3
2019-Dec-05 13:35 271 4 gusting 11 5.2
2019-Dec-05 13:25 281 4 gusting 8 5.2
2019-Dec-05 13:20 282 3 gusting 7 5.1
2019-Dec-05 13:15 283 2 gusting 6 4.9
2019-Dec-05 13:10 275 3 gusting 8 4.8
2019-Dec-05 13:05 269 3 gusting 8 4.7